Regional Weather Roundup
Issued by NWS Upton, NY

Current Version | Previous Version | Graphics & Text | Print | Product List | Glossary Off
Versions: 1 2 3 4 5 6 7 8 9 10 11 12 13 14 15 16 17 18 19 20 21 22 23 24 25 26 27

000
ASUS41 KOKX 240304
RWROKX

REGIONAL WEATHER ROUNDUP
NATIONAL WEATHER SERVICE NEW YORK NY
1100 PM EDT MON MAY 23 2016

NOTE: "FAIR" INDICATES FEW OR NO CLOUDS BELOW 12,000 FEET WITH NO
SIGNIFICANT WEATHER AND/OR OBSTRUCTIONS TO VISIBILITY.

NYZ071-072-176-178-NJZ106-104-240400-
NEW YORK CITY METRO AREA


CITY           SKY/WX    TMP DP  RH WIND       PRES   REMARKS
CENTRAL PARK   CLOUDY    63  45  51 CALM      29.95R
LAGUARDIA APRT CLOUDY    66  48  52 SW5       29.92R
KENNEDY INTL   CLOUDY    62  48  60 S3        29.94R
NEWARK/LIBERTY LGT RAIN  62  51  67 SW8       29.91S
BRNX BOT. GARD   N/A     63  43  48 SE1       29.92S
TETERBORO      CLOUDY    63  46  54 CALM      29.91R
$$

NYZ177-179-078>081-240400-
LONG ISLAND NEW YORK

CITY           SKY/WX    TMP DP  RH WIND       PRES   REMARKS
FARMINGDALE    MOCLDY    62  46  55 W5        29.92R
ISLIP          CLOUDY    62  49  62 E5        29.91S
SHIRLEY        LGT RAIN  58  52  80 CALM      29.92F
RIVERHEAD        N/A     57  55  94 CALM      29.90F
WESTHAMPTON    LGT RAIN  51  51 100 NW6       29.92F
EAST HAMPTON   LGT RAIN  55  54  94 CALM      29.90F
MONTAUK POINT    N/A     56  54  93 CALM      29.92S
$$

NYZ052-065-067-240400-
HUDSON VALLEY

CITY           SKY/WX    TMP DP  RH WIND       PRES   REMARKS
WHITE PLAINS   CLOUDY    61  47  59 CALM      29.92R
NEWBURGH       NOT AVBL
MONTGOMERY     CLOUDY    62  55  77 S5        29.90R
POUGHKEEPSIE   CLOUDY    65  50  58 SE7       29.91R
ALBANY         CLOUDY    66  39  37 N5        29.88R
$$

NJZ001-105-106-008-010-013-015-019>022-104-240400-
NEW JERSEY

CITY           SKY/WX    TMP DP  RH WIND       PRES   REMARKS
NEWARK/LIBERTY LGT RAIN  62  51  67 SW8       29.91S
TETERBORO      CLOUDY    63  46  54 CALM      29.91R
CALDWELL       CLOUDY    60  52  74 CALM      29.93R
MORRISTOWN     LGT RAIN  59  55  88 CALM      29.92S
SOMERVILLE     CLOUDY    60  55  83 S5        29.92R
SUSSEX         CLOUDY    63  54  72 CALM      29.92R
ANDOVER          N/A     63  54  72 VRB3      29.92R
TRENTON        CLOUDY    61  56  83 S6        29.93R
MILLVILLE      CLOUDY    56  53  90 SE5       29.93S
ATLANTIC CITY  CLOUDY    56  53  90 W5        29.93S
WRIGHTSTOWN    CLOUDY    59  49  71 W6        29.92R
TOMS RIVER     CLOUDY    55  50  82 W6        29.93S
BELMAR         CLOUDY    60  48  64 SW5       29.93F
$$

PAZ047>061-062-071-240400-
EASTERN PENNSYLVANIA

CITY           SKY/WX    TMP DP  RH WIND       PRES   REMARKS
PHILADELPHIA   CLOUDY    61  55  81 S6        29.94R
ALLENTOWN      CLOUDY    61  53  75 SW7       29.90S
SCRANTON       PTCLDY    57  51  80 CALM      29.91R
$$

CTZ002-004>006-009-010-012-RIZ004-006-007-MAZ004-011-015-240400-
SOUTHERN NEW ENGLAND
 IN CT

CITY           SKY/WX    TMP DP  RH WIND       PRES   REMARKS
BRADLEY INTL   CLOUDY    66  46  48 SW6       29.90R
HARTFORD       CLOUDY    67  48  50 S5        29.90R
DANBURY        CLOUDY    61  46  57 CALM      29.94R
WTRBRY/OXFORD    N/A     61  45  55 CALM      29.94S
BRIDGEPORT     CLOUDY    64  48  56 S3        29.91S
MERIDEN        CLOUDY    62  51  67 CALM      29.91S
NEW HAVEN      CLOUDY    59  52  77 S3        29.91S
CHESTER        LGT RAIN  57  54  88 CALM      29.92S
GROTON         CLOUDY    56  56 100 SE5       29.91S
WILLIMANTIC    CLOUDY    65  48  54 CALM      29.91R

 IN RI

CITY           SKY/WX    TMP DP  RH WIND       PRES   REMARKS
PROVIDENCE     CLOUDY    63  51  65 CALM      29.90S
BLOCK ISLAND   LGT RAIN  55  54  96 W6        29.90S
WESTERLY       LGT RAIN  58  53  84 CALM      29.92R

 IN MA

CITY           SKY/WX    TMP DP  RH WIND       PRES   REMARKS
BOSTON         CLOUDY    57  52  83 NE5       29.93R
WORCESTER      CLOUDY    63  42  46 SE5       29.93R
WESTFIELD      CLOUDY    65  47  52 S5        29.91R
PROVINCETOWN   CLEAR     52  51  97 CALM      29.91S
NANTUCKET      CLOUDY    51  49  92 E10       29.88R FOG
$$

ANZ330-335-338-340-345-350-353-355-240400-
COASTAL MARINE OBSERVATIONS


STATION/POSITION TIME  SKY/WX   TEMP    WIND        PRES    VSBY  WAVE
                                AIR SEA DIR/SP/G                  HT/PER
                 (UTC)          (F)     (DEG/KT/KT) (MB)    (MI)  (FT/S)
NY HARB ENTRANCE 0250            59 57  240/  8/ 10 1012.5          3/10
20S FIRE ISLAND  0150            58 57  310/  4/  6 1012.4          3/ 8
GREAT SOUTH BAY  0200            63 64  160/  4/  6   N/A
23 SSW MONTAUK P 0250            54 54  300/  8/ 10 1011.4          3/ 9
15 E BARNEGAT LI 0222               56                N/A           4/ 9
HUDSON CANYON    0150            53 52              1011.7          4/ 8
KINGS POINT      0200            62 58              1012.4
EXECUTION ROCKS  NOT AVBL
CENTRAL LI SOUND 0200            61     160/  8/ 10   N/A           0
EASTERN LI SOUND 0200            55 52  210/  4/  4   N/A
ROBBINS REEF     0200            63     210/  7/  8 1012.0
$$


>>>>>>>>>>>>>>>>>>>>>>>>>>>> KEY <<<<<<<<<<<<<<<<<<<<<<<<<<<
>                                                          <
>     SKY/WX - SKY CONDITION/PRESENT WEATHER               <
>     TMP    - TEMPERATURE IN FAHRENHEIT                   <
>     DP     - DEWPOINT IN FAHRENHEIT                      <
>     RH     - RELATIVE HUMIDITY IN PERCENT                <
>     WIND   - DIRECTION AND SPEED IN MPH                  <
>     PRES   - MEAN SEA LEVEL PRESSURE IN INCHES OF HG     <
>     WCI    - WIND CHILL INDEX                            <
>     VSB    - VISIBILITY IN MILES                         <
>     HX     - HEAT INDEX                                  <
>     TC     - TEMPERATURE IN CELSIUS                      <
>     VRB    - VARIABLE WIND DIRECTION                     <
>                                                          <
>>>>>>>>>>>>>>>>>>>>>>>>>>>> KEY <<<<<<<<<<<<<<<<<<<<<<<<<<<






USA.gov is the U.S. government's official web portal to all federal, state and local government web resources and services.